Home > Weather > Panipat > Past weeks

Flag for India Past Weather in Panipat, Haryana, India — Yesterday and Last 2 Weeks

Now
90 °F

Fog.


Feels Like: 105 °F
Forecast: 87 / 100 °F
Wind: 5 mph from Northeast

Location: New Delhi Palam Airport

Current Time: Jun 28, 2016 at 1:35:21 PM

Latest Report: Jun 28, 2016 at 1:00 PM


Visibility: 1 mi

Pressure: 29.65 "Hg

Humidity: 71%

Dew Point: 79 °F

Location of PanipatLocation

Past Weather in Panipat — Graph

°F

Panipat Temperature Yesterday

Maximum temperature yesterday: 102 °F (at 1:00 PM)
Minimum temperature yesterday: 88 °F (at 3:30 AM)
Average temperature yesterday: 93 °F

High & Low Weather Summary for the Past Weeks

 TemperatureHumidityPressure
High104 °F (Jun 13, 11:30 AM)94% (Jun 28, 9:30 AM)29.68 "Hg (Jun 28, 9:30 AM)
Low77 °F (Jun 14, 4:30 AM)29% (Jun 13, 11:30 AM)29.39 "Hg (Jun 15, 5:00 PM)
Average92 °F58%29.56 "Hg
* Reported Jun 13 11:30 AM — Jun 28 12:00 PM, Panipat, Weather by CustomWeather, © 2016

Note: Actual official high and low records may vary slightly from our data, if they occured in-between our weather recording intervals... More about our weather records

Advertising

Panipat Weather History for the Previous 24 Hours

Scroll right to see more
 ConditionsComfort  
Time TempWeatherWind HumidityBarometerVisibility
12:00 PM
Tue, Jun 28
84 °FFog.5 mph84%29.65 "Hg1 mi
11:30 AM84 °FFog.No wind84%29.68 "Hg1 mi
11:00 AM82 °FFog.No wind89%29.68 "Hg1 mi
10:30 AM81 °FThunderstorms. More clouds than sun.5 mph94%29.68 "Hg1 mi
10:00 AM81 °FThunderstorms. More clouds than sun.5 mph94%29.68 "Hg1 mi
9:30 AM81 °FThunderstorms. More clouds than sun.5 mph94%29.65 "Hg1 mi
9:00 AM82 °FThunderstorms. More clouds than sun.5 mph89%29.65 "Hg1 mi
8:30 AM82 °FThunderstorms. More clouds than sun.No wind89%29.65 "Hg1 mi
8:00 AM82 °FThundershowers. More clouds than sun.No wind89%29.65 "Hg1 mi
7:30 AM82 °FThundershowers. More clouds than sun.No wind89%29.65 "Hg1 mi
7:00 AM82 °FThunderstorms. More clouds than sun.No wind89%29.62 "Hg1 mi
6:30 AM82 °FThunderstorms. More clouds than sun.No wind84%29.62 "Hg1 mi
5:30 AM82 °FThunderstorms. Mostly cloudy.5 mph89%29.59 "Hg1 mi
5:00 AM82 °FThunderstorms. Mostly cloudy.3 mph89%29.56 "Hg1 mi
4:30 AM82 °FThunderstorms. Mostly cloudy.3 mph89%29.56 "Hg1 mi
4:00 AM81 °FThunderstorms. Mostly cloudy.6 mph79%29.56 "Hg1 mi
3:30 AM81 °FThunderstorms. Mostly cloudy.7 mph79%29.56 "Hg1 mi
3:00 AM81 °FThunderstorms. Mostly cloudy.8 mph84%29.53 "Hg1 mi
2:30 AM79 °FThunderstorms. Mostly cloudy.10 mph89%29.53 "Hg1 mi
2:00 AM79 °FThunderstorms. Mostly cloudy.N/A84%29.56 "Hg1 mi
1:30 AM81 °FThunderstorms. Mostly cloudy.9 mph79%29.59 "Hg1 mi
1:00 AM81 °FThunderstorms. Mostly cloudy.9 mph74%29.56 "Hg1 mi
12:30 AM86 °FThunderstorms. Mostly cloudy.9 mph70%29.56 "Hg1 mi
12:00 AM91 °FPassing clouds.8 mph71%29.56 "Hg2 mi
11:30 PM
Mon, Jun 27
91 °FPassing clouds.5 mph71%29.56 "Hg2 mi
11:00 PM91 °FPassing clouds.5 mph67%29.56 "Hg2 mi
10:30 PM91 °FPassing clouds.5 mph67%29.56 "Hg2 mi
10:00 PM91 °FPassing clouds.5 mph67%29.56 "Hg2 mi
9:30 PM93 °FPassing clouds.7 mph56%29.56 "Hg2 mi
9:00 PM95 °FPassing clouds.7 mph53%29.53 "Hg2 mi
8:30 PM95 °FPassing clouds.7 mph53%29.50 "Hg2 mi
8:00 PM95 °FPassing clouds.7 mph53%29.50 "Hg2 mi
7:30 PM95 °FBroken clouds.6 mph53%29.47 "Hg2 mi
7:00 PM95 °FBroken clouds.5 mph53%29.47 "Hg2 mi
6:30 PM95 °FBroken clouds.6 mph53%29.45 "Hg2 mi
6:00 PM95 °FBroken clouds.7 mph53%29.45 "Hg2 mi
5:30 PM95 °FBroken clouds.7 mph53%29.47 "Hg2 mi
5:00 PM95 °FBroken clouds.8 mph53%29.47 "Hg2 mi
4:30 PM99 °FBroken clouds.7 mph44%29.50 "Hg2 mi
4:00 PM99 °FBroken clouds.7 mph44%29.50 "Hg2 mi
3:30 PM99 °FBroken clouds.12 mph44%29.50 "Hg2 mi
3:00 PM100 °FBroken clouds.12 mph42%29.50 "Hg2 mi
2:30 PM102 °FBroken clouds.10 mph40%29.50 "Hg2 mi
2:00 PM102 °FBroken clouds.9 mph42%29.53 "Hg2 mi
1:00 PM102 °FBroken clouds.9 mph40%29.56 "Hg2 mi
Weather by CustomWeather, © 2016

See weather overviewHow to use our weather pages